Location: Sibbertoft
(52.4361°N, 1.0300°W)
Time: 05:56:16
(UTC+01:00)

Envisat - Visible Passes

Search period start: 29 September 2020 00:00
Search period end: 09 October 2020 00:00
Orbit: 764 x 766 km, 98.1° (Epoch: 28 September)

Date Brightness Start Highest point End Pass type
(mag) Time Alt. Az. Time Alt. Az. Time Alt. Az.
29 Sep 6.7 20:03:36 10° W 20:04:59 11° W 20:06:22 10° WNW visible
30 Sep 5.4 06:23:05 10° NNE 06:27:30 29° E 06:31:53 10° SSE visible
30 Sep 6.0 19:23:44 10° SW 19:27:38 22° W 19:31:33 10° NW visible
01 Oct 6.2 05:47:20 10° NE 05:50:15 15° E 05:53:09 10° ESE visible
02 Oct 6.4 19:50:53 10° WSW 19:53:26 14° W 19:55:59 10° NW visible
03 Oct 5.7 06:11:55 10° NE 06:16:01 24° E 06:20:06 10° SE visible
03 Oct 5.6 19:11:55 10° SSW 19:16:09 26° W 19:20:26 10° NW visible
04 Oct 6.5 05:36:40 10° ENE 05:38:42 12° E 05:40:44 10° ESE visible
05 Oct 4.8 06:36:57 10° NNE 06:41:42 37° E 06:46:24 10° SSE visible
05 Oct 6.2 19:38:39 10° SW 19:41:54 17° W 19:45:09 10° NW visible
06 Oct 6.0 06:00:50 10° NE 06:04:32 20° E 06:08:12 10° SE visible
06 Oct 5.2 19:00:09 10° SSW 19:04:41 32° W 19:09:14 10° NNW visible
07 Oct 6.8 20:07:23 10° W 20:07:45 10° W 20:08:09 10° WNW visible
08 Oct 5.2 06:25:43 10° NNE 06:30:14 31° E 06:34:43 10° SSE visible
08 Oct 6.0 19:26:39 10° SW 19:30:23 20° W 19:34:09 10° NW visible
